[[{"header":{"parameterUnit":"m.s-1","parameterCategory":1,"la1":30.2991,"la2":30.254,"lo1":-89.0895,"lo2":-89.0444,"dy":0.0017,"dx":0.0017,"nx":28,"ny":28,"refTime":"2024-08-13T03:00:00:Z","depth":0,"parameterNumber":2,"parameterNumberName":"U-component_of_WINDS"},"data":[0,0,0,0,0,0,0,0,0,0,0,0,0,0,0,0,0,0,0,0,0,0,0,0,0,0,0,0,0,0,0,0,0,0,0,0,0,0,0,0,0,0,0,0,0,0,0,0,0,0,0,0,0,0,0,0,0,0,3.5261,3.5263,0,3.5392,3.5394,3.5395,3.536,3.5357,3.5354,3.5352,3.5488,3.5494,3.55,0,0,0,0,0,0,0,0,0,0,0,0,0,3.498,3.4986,3.5261,3.5263,3.5264,3.5392,3.5394,3.5396,3.536,3.5357,3.5354,3.5351,3.5486,3.5493,3.55,0,0,0,0,0,0,0,0,0,0,0,0,0,3.5106,3.4987,3.5261,3.5262,3.5264,3.5392,3.5394,3.5396,3.5361,3.5357,3.5353,3.5349,3.5483,3.5492,3.5501,3.5636,0,0,3.5529,3.5533,0,0,0,0,0,0,0,0,3.5099,3.5116,3.526,3.5262,3.5264,3.5356,3.5344,3.5477,3.5362,3.5324,3.5352,3.5347,3.5447,3.5459,3.5492,3.5643,3.5649,3.553,3.5535,3.5539,3.5542,0,0,0,0,0,0,0,3.509,3.511,3.5313,3.5262,3.5265,3.5256,3.527,3.5369,3.5406,3.5327,3.5325,3.5341,3.5447,3.5483,3.5495,3.5651,3.5529,3.5538,3.5543,3.5547,3.5917,3.5921,0,0,0,0,0,0,3.508,3.5103,3.5309,3.5317,3.517,3.5264,3.5279,3.533,3.5405,3.5412,3.5344,3.5338,3.547,3.5484,3.55,3.5662,3.5539,3.5548,3.5553,3.5913,3.5918,3.5923,0,0,0,0,0,0,3.5074,3.5099,3.5304,3.521,3.5235,3.5273,3.5331,3.5335,3.5371,3.5418,3.5424,3.5374,3.5467,3.5487,3.5602,3.5666,3.5552,3.556,3.5908,3.5914,3.592,3.5988,0,0,0,0,0,0,3.5066,3.5097,3.5149,3.5211,3.524,3.5404,3.5335,3.534,3.5387,3.5381,3.5448,3.5455,3.5466,3.5589,3.5611,3.5676,3.5567,3.5902,3.5911,3.5918,3.598,3.5996,3.6009,0,0,0,0,0,3.5056,3.5163,3.5152,3.5177,3.5306,3.5408,3.5424,3.5434,3.5392,3.5444,3.5474,3.5453,3.5655,3.5601,3.5626,3.5695,3.5898,3.5908,3.5918,3.5973,3.5993,3.6009,0,0,0,0,0,0,3.5108,3.5172,3.5159,3.529,3.5343,3.5402,3.5468,3.5455,3.5522,3.5514,3.5524,3.5539,3.5657,3.5687,3.5625,3.5829,3.5771,3.5786,3.5804,3.5823,3.5837,3.5827,3.5575,0,0,0,0,0,3.5135,3.5212,3.5263,3.5373,3.5401,3.543,3.5475,3.5477,3.5534,3.5557,3.5595,3.5651,3.5727,3.5777,3.5849,3.5984,3.5998,3.6044,3.6059,3.607,3.6083,3.6155,3.6176,3.5955,3.5955,3.5955,0,0,3.5191,3.5235,3.5283,3.5385,3.5427,3.5506,3.5449,3.5536,3.5595,3.557,3.5681,3.5711,3.5774,3.5899,3.5956,3.5928,3.6147,3.6083,3.6092,3.6099,3.6168,3.6189,3.6207,3.5962,3.596,3.5959,0,0,3.5333,3.5374,3.547,3.5513,3.5577,3.5595,3.5618,3.5678,3.5696,3.5807,3.5789,3.586,3.5991,3.6036,3.6076,3.6234,3.6216,3.6257,3.6334,3.6404,3.6421,3.6437,3.6492,3.6511,3.627,3.627,3.627,0,3.5394,3.5513,3.5521,3.5609,3.5653,3.5633,3.5729,3.5771,3.5856,3.5887,3.5854,3.6017,3.6058,3.6193,3.6231,3.6265,3.6291,3.6249,3.6418,3.6434,3.6448,3.6501,3.6522,3.6275,3.6274,3.6274,3.6273,0,3.5585,3.5668,3.5737,3.5818,3.5871,3.5963,3.5983,3.6036,3.6033,3.6055,3.6168,3.6216,3.6297,3.633,3.6329,3.6464,3.6445,3.6415,3.6357,3.6474,3.6523,3.6543,3.6281,3.6279,3.6278,3.6277,0,0,3.5765,3.5847,3.5872,3.5908,3.5976,3.604,3.6131,3.6209,3.6254,3.6313,3.6388,3.6499,3.6471,3.6517,3.6521,3.6583,3.6702,3.6545,3.6547,3.6572,3.6853,3.6874,3.6897,3.6691,3.6695,3.6698,3.6847,0,3.5912,3.607,3.6079,3.6223,3.6298,3.6279,3.6358,3.6408,3.643,3.6498,3.6523,3.66,3.6559,3.6586,3.6646,3.6675,3.6759,3.6665,3.6761,3.6765,3.6745,3.6923,3.6946,3.7084,3.6867,3.687,3.6872,0,3.6105,3.6168,3.6319,3.6375,3.6407,3.6478,3.6549,3.6614,3.6671,3.6682,3.6732,3.6727,3.6819,3.6758,3.6884,3.682,3.686,3.688,3.6886,3.6895,3.6825,3.6936,3.7129,3.7149,3.6903,3.6901,3.6898,0,3.6219,3.6343,3.6448,3.648,3.6548,3.6597,3.6628,3.668,3.6726,3.6789,3.6819,3.6893,3.6933,3.6989,3.7004,3.6958,3.713,3.707,3.7142,3.7142,3.7179,3.7176,3.738,3.7206,3.7206,3.7205,3.7205,0,3.6383,3.6476,3.65,3.6565,3.6668,3.6677,3.6779,3.6806,3.6853,3.6922,3.6911,3.6977,3.6992,3.7061,3.7073,3.7175,3.7194,3.7206,3.7208,3.7206,3.7205,3.7232,3.7223,3.7211,3.721,3.7209,3.7208,0,3.6528,3.6548,3.6662,3.6716,3.6732,3.6806,3.6852,3.6914,3.6934,3.7023,3.7044,3.7076,3.7156,3.7176,3.7273,3.7281,3.7401,3.7395,3.7382,3.7381,3.7452,3.7444,3.768,3.771,3.7517,3.7519,3.7521,0,3.6631,3.6701,3.6762,3.6808,3.684,3.6914,3.696,3.6971,3.702,3.7088,3.7142,3.7221,3.7284,3.7413,3.7445,3.7518,3.7513,3.759,3.7524,3.7519,3.7513,3.7508,3.7514,3.7602,3.7604,3.7606,3.7608,0,3.681,3.6816,3.6883,3.6953,3.7009,3.7065,3.7119,3.7157,3.7175,3.723,3.7311,3.736,3.7457,3.7535,3.7608,3.764,3.7627,3.7628,3.7648,3.7648,3.7637,3.7642,3.7415,3.7623,3.7621,3.762,3.7619,3.7619,3.6937,3.6998,3.705,3.7124,3.7165,3.7215,3.7276,3.7303,3.737,3.7449,3.7452,3.754,3.7593,3.769,3.7725,3.7794,3.7771,3.7801,3.7808,3.7815,3.7821,3.7626,3.7808,3.7808,3.7807,3.7807,3.7807,0,3.7114,3.7146,3.7215,3.7289,3.7348,3.7329,3.7387,3.7437,3.7514,3.7565,3.7626,3.7719,3.7794,3.7831,3.7906,3.7953,3.7949,3.7973,3.7969,3.7976,3.7838,3.7812,3.7975,3.7975,3.7975,3.7975,3.7974,3.7974,3.7214,3.7316,3.7327,3.7449,3.7481,3.7566,3.76,3.7646,3.7686,3.7789,3.7851,3.7874,3.7919,3.7996,3.8064,3.8073,3.8101,3.8127,3.8133,3.8003,3.7986,3.797,3.7946,3.8133,3.8133,3.8265,3.8266,3.8267]},{"header":{"parameterUnit":"m.s-1","parameterCategory":1,"la1":30.2991,"la2":30.254,"lo1":-89.0895,"lo2":-89.0444,"dy":0.0017,"dx":0.0017,"nx":28,"ny":28,"refTime":"2024-08-13T03:00:00:Z","depth":0,"parameterNumber":3,"parameterNumberName":"V-component_of_WINDS"},"data":[0,0,0,0,0,0,0,0,0,0,0,0,0,0,0,0,0,0,0,0,0,0,0,0,0,0,0,0,0,0,0,0,0,0,0,0,0,0,0,0,0,0,0,0,0,0,0,0,0,0,0,0,0,0,0,0,0,0,1.0347,1.0347,0,1.034,1.034,1.034,1.0293,1.0292,1.0291,1.029,1.0285,1.0286,1.0287,0,0,0,0,0,0,0,0,0,0,0,0,0,1.0321,1.0322,1.0347,1.0347,1.0347,1.034,1.034,1.034,1.0294,1.0292,1.0291,1.029,1.0285,1.0286,1.0287,0,0,0,0,0,0,0,0,0,0,0,0,0,1.0325,1.0322,1.0347,1.0323,1.0321,1.034,1.034,1.034,1.0294,1.0292,1.029,1.0289,1.0285,1.0286,1.0287,1.033,0,0,1.0292,1.0292,0,0,0,0,0,0,0,0,1.0325,1.0326,1.0326,1.0325,1.0322,1.0316,1.0329,1.0337,1.0294,1.0304,1.029,1.0288,1.0297,1.0297,1.03,1.033,1.033,1.0292,1.0293,1.0293,1.0294,0,0,0,0,0,0,0,1.0325,1.0326,1.0344,1.0327,1.0324,1.0313,1.0311,1.033,1.031,1.0303,1.03,1.0299,1.0295,1.0299,1.0299,1.033,1.0292,1.0293,1.0294,1.0294,1.0394,1.0396,0,0,0,0,0,0,1.0328,1.0326,1.0345,1.0344,1.0319,1.0315,1.0313,1.032,1.031,1.0307,1.0301,1.0297,1.0297,1.0298,1.0299,1.0348,1.0293,1.0295,1.0295,1.0392,1.0395,1.0397,0,0,0,0,0,0,1.0327,1.033,1.0345,1.0334,1.0335,1.0317,1.0325,1.032,1.0323,1.0308,1.0305,1.0308,1.0296,1.0297,1.0323,1.0347,1.0295,1.0296,1.039,1.0393,1.0396,1.0448,0,0,0,0,0,0,1.0327,1.033,1.0346,1.0335,1.0336,1.0368,1.0326,1.0322,1.0326,1.0321,1.0314,1.0311,1.0294,1.0321,1.0324,1.0348,1.0298,1.0388,1.0392,1.0395,1.0444,1.0452,1.0459,0,0,0,0,0,1.0326,1.0361,1.0347,1.0349,1.0356,1.037,1.0371,1.035,1.0328,1.0344,1.0334,1.0311,1.0344,1.0324,1.0327,1.0352,1.0386,1.0391,1.0394,1.044,1.045,1.0458,0,0,0,0,0,0,1.0377,1.036,1.0343,1.0376,1.0375,1.0362,1.0382,1.0362,1.0367,1.0363,1.0338,1.0337,1.0366,1.0361,1.0339,1.0393,1.0361,1.0366,1.0395,1.0404,1.0412,1.0412,1.0299,0,0,0,0,0,1.0392,1.0404,1.0389,1.0419,1.0419,1.0401,1.0406,1.039,1.0388,1.0388,1.038,1.0379,1.0389,1.0396,1.0405,1.0442,1.044,1.0461,1.0469,1.0475,1.048,1.0499,1.0508,1.041,1.041,1.041,0,0,1.0423,1.0415,1.0425,1.0429,1.0426,1.044,1.0401,1.0417,1.0427,1.039,1.0414,1.0408,1.0405,1.0437,1.045,1.0434,1.0506,1.048,1.0485,1.0487,1.0504,1.0513,1.0522,1.0413,1.0412,1.0412,0,0,1.0487,1.0482,1.0507,1.0504,1.05,1.0487,1.0493,1.0483,1.0477,1.05,1.0472,1.0484,1.0502,1.0501,1.0503,1.0565,1.0544,1.0569,1.0609,1.0628,1.0635,1.0642,1.0664,1.0672,1.0573,1.0574,1.0574,0,1.0527,1.0546,1.0522,1.054,1.0543,1.0509,1.0534,1.0532,1.0532,1.0534,1.0516,1.0537,1.0533,1.0564,1.0579,1.0581,1.0587,1.057,1.0636,1.0642,1.0648,1.0669,1.0678,1.0577,1.0576,1.0576,1.0576,0,1.0595,1.0608,1.0629,1.0627,1.0632,1.0654,1.0633,1.0641,1.0625,1.0614,1.0638,1.0631,1.0638,1.0644,1.0628,1.0672,1.0662,1.064,1.0608,1.0661,1.068,1.0688,1.0581,1.058,1.0579,1.0578,0,0,1.0692,1.0676,1.0684,1.0682,1.0674,1.0684,1.0704,1.0709,1.0716,1.0717,1.0732,1.0748,1.0727,1.0729,1.0714,1.073,1.0779,1.0706,1.0706,1.072,1.0827,1.0844,1.0853,1.0765,1.0767,1.0768,1.0827,0,1.0753,1.0785,1.0763,1.0799,1.0811,1.0778,1.0795,1.0793,1.0783,1.0792,1.0781,1.0793,1.0765,1.0766,1.0781,1.077,1.0801,1.0766,1.078,1.0781,1.0782,1.0863,1.0881,1.0937,1.0835,1.0836,1.0837,0,1.0829,1.0831,1.0867,1.0856,1.086,1.0876,1.0878,1.0887,1.0883,1.0875,1.0877,1.0857,1.0875,1.0843,1.0868,1.0845,1.085,1.0845,1.0847,1.0848,1.0812,1.0866,1.0955,1.0963,1.0848,1.0847,1.0846,0,1.0895,1.0907,1.093,1.093,1.0918,1.0929,1.0925,1.0919,1.0923,1.0926,1.0928,1.0933,1.0936,1.094,1.0922,1.09,1.095,1.0916,1.0944,1.0944,1.0956,1.0956,1.1047,1.0959,1.0959,1.0958,1.0958,0,1.0966,1.099,1.096,1.0975,1.1,1.0975,1.1001,1.0993,1.0988,1.1001,1.0973,1.0985,1.096,1.097,1.0956,1.0979,1.098,1.0974,1.097,1.0977,1.0978,1.098,1.0976,1.0961,1.096,1.096,1.0959,0,1.1045,1.1026,1.1049,1.1035,1.1032,1.1051,1.1039,1.1052,1.104,1.1056,1.1058,1.1039,1.1049,1.1031,1.104,1.103,1.1062,1.1052,1.1063,1.106,1.1089,1.1087,1.1185,1.1196,1.1101,1.1102,1.1103,0,1.1091,1.1108,1.1095,1.1101,1.1098,1.1108,1.1111,1.1088,1.1093,1.1089,1.1102,1.111,1.1115,1.1132,1.112,1.1126,1.1116,1.115,1.1117,1.1122,1.1116,1.1115,1.1117,1.1157,1.1158,1.1159,1.116,0,1.1176,1.1165,1.1171,1.1174,1.1178,1.118,1.1179,1.1186,1.116,1.1167,1.1177,1.118,1.1188,1.1196,1.1199,1.1194,1.1173,1.117,1.1177,1.1184,1.119,1.1187,1.1082,1.1168,1.1167,1.1167,1.1166,1.1166,1.1239,1.1253,1.1245,1.1253,1.1249,1.1249,1.126,1.1249,1.1256,1.126,1.1245,1.1258,1.1253,1.1254,1.1252,1.1262,1.1247,1.1257,1.1259,1.1262,1.1267,1.1188,1.1262,1.1262,1.1262,1.1262,1.1262,0,1.1322,1.1315,1.1322,1.1321,1.1327,1.1305,1.1303,1.131,1.1321,1.1318,1.1322,1.1333,1.134,1.1328,1.1333,1.1344,1.1334,1.1346,1.1345,1.1344,1.128,1.1273,1.1354,1.1354,1.1354,1.1353,1.1353,1.1353,1.1366,1.1387,1.1376,1.1395,1.1388,1.14,1.14,1.14,1.1397,1.141,1.1415,1.1407,1.14,1.1404,1.141,1.1406,1.1409,1.1425,1.1418,1.1358,1.1349,1.134,1.1334,1.1426,1.1426,1.1481,1.1482,1.1482]}]]